CW1656 Weather Reports


time (UTC)temp
C
wind
direction
speed
KPH
gust
KPH
rain 1hr
cm
rain 24hr
cm
rain mn
cm
humidity
%
barometer
mb
20260504044557 10 186 0.0 1.6 0.00 0.00 0.00 62 1010.7
20260504043044 10 232 0.0 9.7 0.00 0.00 0.00 61 1010.7
20260504041541 10 215 1.6 6.4 0.00 0.00 0.00 60 1010.7
20260504040039 10 188 0.0 9.7 0.00 0.00 0.00 59 1010.8
20260504034545 11 261 1.6 8.0 0.00 0.00 0.00 59 1010.7
20260504033050 11 162 0.0 6.4 0.00 0.00 0.00 58 1010.7
20260504031538 11 234 3.2 16.1 0.00 0.00 0.00 58 1010.7
20260504030037 11 254 1.6 12.9 0.00 0.00 0.00 58 1010.8
20260504024535 11 99 1.6 4.8 0.00 0.00 0.00 60 1010.8
20260504023035 11 252 0.0 6.4 0.00 0.00 0.00 60 1010.8
20260504021536 11 136 0.0 16.1 0.00 0.00 0.00 60 1011.1
20260504020035 11 263 0.0 11.3 0.00 0.00 0.00 61 1011.1
20260504014532 11 186 0.0 6.4 0.00 0.00 0.00 61 1011.1
20260504013037 10 171 0.0 8.0 0.00 0.00 0.00 65 1011.1
20260504011531 10 199 0.0 6.4 0.00 0.00 0.00 70 1011.1
20260504010039 10 88 0.0 1.6 0.00 0.00 0.00 71 1011.3
20260504004530 10 348 0.0 3.2 0.00 0.00 0.00 72 1011.4
20260504003029 10 244 0.0 3.2 0.00 0.00 0.00 74 1011.4
20260504001528 10 142 1.6 4.8 0.00 0.00 0.00 76 1011.7
20260504000028 10 309 0.0 6.4 0.00 0.00 0.00 76 1011.8
20260503234527 10 271 1.6 8.0 0.00 0.00 0.00 75 1011.7
20260503233026 10 282 3.2 14.5 0.00 0.00 0.00 74 1011.6
20260503231625 10 263 4.8 24.1 0.00 0.00 0.00 70 1011.6
20260503230023 11 254 8.0 22.5 0.00 0.00 0.00 62 1011.6
20260503224522 11 80 3.2 16.1 0.00 0.00 0.00 60 1011.3
20260503223023 11 237 3.2 11.3 0.00 0.00 0.00 60 1011.1
20260503221530 11 235 3.2 12.9 0.00 0.00 0.00 57 1011.1
20260503220022 12 244 1.6 14.5 0.00 0.00 0.00 56 1011.2
20260503214522 12 232 3.2 12.9 0.00 0.00 0.00 53 1011.0
20260503213028 12 69 4.8 19.3 0.00 0.00 0.00 53 1011.2
20260503211520 12 155 1.6 11.3 0.00 0.00 0.00 55 1011.2
20260503210018 12 288 3.2 14.5 0.00 0.00 0.00 52 1011.4
20260503204523 12 160 1.6 9.7 0.00 0.00 0.00 53 1011.3
20260503203016 13 256 1.6 12.9 0.00 0.00 0.00 51 1011.4
20260503201525 13 255 3.2 16.1 0.00 0.00 0.00 51 1011.5
20260503200012 14 300 3.2 12.9 0.00 0.00 0.00 47 1011.7
20260503194511 13 277 4.8 17.7 0.00 0.00 0.00 46 1011.9
20260503193010 14 288 6.4 20.9 0.00 0.00 0.00 46 1012.3
20260503191506 13 167 6.4 20.9 0.00 0.00 0.00 43 1012.6
20260503190016 13 310 3.2 9.7 0.00 0.00 0.00 46 1012.8
20260503184600 13 212 4.8 14.5 0.00 0.00 0.00 48 1013.1
20260503183104 12 160 4.8 16.1 0.00 0.00 0.00 48 1013.5
20260503181621 12 292 8.0 22.5 0.00 0.00 0.00 44 1013.6
20260503180124 12 139 3.2 11.3 0.00 0.00 0.00 49 1013.8
20260503174557 11 324 4.8 24.1 0.00 0.00 0.00 46 1013.9
20260503173058 12 76 4.8 17.7 0.00 0.00 0.00 52 1014.0
20260503171550 13 170 3.2 12.9 0.00 0.00 0.00 54 1014.0
20260503081539 1 290 0.0 3.2 0.00 0.00 0.00 90 1016.0
20260503071534 2 294 0.0 4.8 0.00 0.00 0.00 87 1016.0
20260503054521 2 9 0.0 3.2 0.00 0.00 0.00 82 1016.2